Flag for Norway Weather past 2 weeks in Vennesla, Norway

Now
48 °F

Fog.


Feels Like: 48 °F
Forecast: 47 / 64 °F
Wind: 2 mph from North

Location: Kristiansand / Kjevik

Current Time: Aug 23, 2014 at 8:18:37 AM

Latest Report: Aug 23, 2014 at 7:50 AM


Visibility: N/A

Pressure: 29.59 "Hg

Humidity: 94%

Dew point: 46 °F

Location of VenneslaLocation

Historic Weather in Vennesla — Graph

°F

Vennesla temperature yesterday

Maximum temperature yesterday: 61 °F (at 12:20 PM)
Minimum temperature yesterday: 48 °F (at 4:20 AM)
Average temperature yesterday: 53 °F

Past Weeks' High & Low Weather Summary

 TemperatureHumidityPressure
High72 °F (Aug 8, 2:50 PM)100% (Aug 8, 6:50 AM)29.92 "Hg (Aug 8, 6:50 AM)
Low45 °F (Aug 18, 4:20 AM)43% (Aug 16, 2:20 PM)29.18 "Hg (Aug 18, 1:50 PM)
Average59 °F78%29.55 "Hg
* Reported Aug 8 6:20 AM — Aug 23 6:50 AM, Vennesla, Weather by CustomWeather, © 2014

Note: Actual official high and low records may vary slightly from our data, if they occured in-between our weather recording intervals... More about our weather records

Advertising

Vennesla weather history for previous 24 hours

 ConditionsComfort  
Time TempWeatherWind HumidityBarometerVisibility
6:50 AM
Aug 23
45 °FFog.2 mph100%29.59 "HgN/A
6:20 AM45 °FQuite cool.5 mph100%29.59 "HgN/A
5:50 AM45 °FPassing clouds.2 mph100%29.59 "Hg0 mi
5:20 AM45 °FPassing clouds.2 mph100%29.59 "Hg1 mi
4:50 AM46 °FPassing clouds.3 mph93%29.59 "Hg1 mi
4:20 AM46 °FPassing clouds.5 mph93%29.59 "Hg3 mi
3:50 AM46 °FPassing clouds.3 mph100%29.59 "HgN/A
3:20 AM46 °FFog.6 mph100%29.59 "Hg0 mi
2:50 AM48 °FFog.5 mph100%29.59 "Hg0 mi
2:20 AM48 °FFog.3 mph100%29.59 "Hg0 mi
1:50 AM50 °FFog.3 mph100%29.59 "Hg0 mi
1:20 AM50 °FFog.3 mph100%29.59 "Hg0 mi
12:50 AM50 °FFog.5 mph100%29.59 "Hg3 mi
12:20 AM52 °FFog.5 mph94%29.59 "Hg1 mi
11:50 PM
Aug 22
52 °FPassing clouds.5 mph94%29.59 "HgN/A
11:20 PM54 °FSprinkles. Partly cloudy.5 mph94%29.59 "HgN/A
10:50 PM54 °FThunderstorms. Passing clouds.2 mph94%29.62 "Hg2 mi
10:20 PM52 °FSprinkles. Partly cloudy.2 mph100%29.62 "HgN/A
9:50 PM52 °FThundershowers. Scattered clouds.5 mph100%29.59 "HgN/A
9:20 PM52 °FScattered showers. Scattered clouds.5 mph94%29.59 "HgN/A
8:50 PM54 °FScattered clouds.2 mph94%29.59 "HgN/A
8:20 PM55 °FScattered clouds.2 mph88%29.59 "HgN/A
7:50 PM57 °FScattered clouds.3 mph82%29.59 "HgN/A
7:20 PM55 °FScattered clouds.5 mph88%29.59 "HgN/A
6:50 PM57 °FScattered showers. Scattered clouds.6 mph82%29.59 "HgN/A
6:20 PM57 °FScattered showers. Scattered clouds.6 mph88%29.59 "HgN/A
5:50 PM57 °FSprinkles. Scattered clouds.6 mph82%29.62 "HgN/A
5:20 PM57 °FScattered showers. Partly sunny.6 mph82%29.62 "HgN/A
4:50 PM57 °FBroken clouds.6 mph88%29.62 "HgN/A
4:20 PM57 °FPartly sunny.6 mph88%29.62 "HgN/A
3:50 PM55 °FSprinkles. Partly sunny.3 mph88%29.62 "HgN/A
3:20 PM55 °FPartly sunny.5 mph82%29.62 "HgN/A
2:50 PM55 °FScattered showers. Partly sunny.6 mph88%29.62 "HgN/A
2:20 PM54 °FSprinkles. Partly sunny.2 mph94%29.65 "Hg4 mi
1:50 PM54 °FSprinkles. Broken clouds.2 mph88%29.62 "HgN/A
1:20 PM54 °FRain showers. Broken clouds.1 mph94%29.62 "Hg4 mi
12:50 PM54 °FMixture of precip. Broken clouds.9 mph94%29.62 "HgN/A
12:20 PM61 °FScattered showers. Partly sunny.5 mph77%29.62 "HgN/A
11:50 AM57 °FSprinkles. Broken clouds.2 mph82%29.62 "HgN/A
11:20 AM57 °FScattered showers. Broken clouds.5 mph88%29.62 "HgN/A
10:50 AM55 °FSprinkles. Broken clouds.3 mph88%29.62 "HgN/A
10:20 AM55 °FScattered showers. Broken clouds.6 mph88%29.62 "HgN/A
9:50 AM54 °FScattered showers. Broken clouds.6 mph94%29.62 "HgN/A
9:20 AM52 °FSprinkles. Broken clouds.5 mph94%29.62 "HgN/A
8:50 AM50 °FSprinkles. Partly sunny.6 mph94%29.62 "HgN/A
8:20 AM50 °FSprinkles. Broken clouds.8 mph94%29.62 "HgN/A
Weather by CustomWeather, © 2014

See weather overviewHow to use our weather pages